TimeCST,TemperatureF,Dew PointF,Humidity,Sea Level PressureIn,VisibilityMPH,Wind Direction,Wind SpeedMPH,Gust SpeedMPH,PrecipitationIn,Events,Conditions,WindDirDegrees,DateUTC
1:53 AM,32.0,26.1,79,30.00,10.0,WSW,10.4,-,N/A,,Scattered Clouds,250,2013-01-09 07:53:00
2:53 AM,30.0,25.0,82,30.03,10.0,South,5.8,-,N/A,,Clear,190,2013-01-09 08:53:00
3:53 AM,30.9,25.0,79,30.05,10.0,SSE,6.9,-,N/A,,Mostly Cloudy,160,2013-01-09 09:53:00
4:53 AM,30.0,24.1,79,30.05,10.0,South,11.5,-,N/A,,Clear,170,2013-01-09 10:53:00
5:53 AM,30.0,24.1,79,30.06,10.0,SW,8.1,-,N/A,,Clear,230,2013-01-09 11:53:00
6:53 AM,32.0,24.1,73,30.12,10.0,SW,8.1,-,N/A,,Clear,230,2013-01-09 12:53:00
7:53 AM,33.1,23.0,66,30.14,10.0,West,8.1,-,N/A,,Clear,260,2013-01-09 13:53:00
8:53 AM,34.0,23.0,64,30.17,10.0,West,11.5,-,N/A,,Clear,280,2013-01-09 14:53:00
9:53 AM,35.1,21.9,59,30.19,10.0,West,13.8,-,N/A,,Clear,270,2013-01-09 15:53:00
11:53 AM,36.0,21.0,55,30.27,10.0,West,15.0,25.3,N/A,,Clear,280,2013-01-09 17:53:00
12:53 PM,37.0,21.0,52,30.30,10.0,West,17.3,-,N/A,,Clear,270,2013-01-09 18:53:00
1:53 PM,37.9,21.0,51,30.34,10.0,West,10.4,27.6,N/A,,Clear,280,2013-01-09 19:53:00
2:53 PM,37.0,21.9,54,30.40,10.0,West,12.7,-,N/A,,Clear,270,2013-01-09 20:53:00
3:53 PM,35.1,21.9,59,30.41,10.0,NW,6.9,-,N/A,,Clear,310,2013-01-09 21:53:00
4:53 PM,32.0,19.9,61,30.42,10.0,West,4.6,-,N/A,,Clear,260,2013-01-09 22:53:00
5:53 PM,28.0,19.0,69,30.43,10.0,Calm,Calm,-,N/A,,Clear,0,2013-01-09 23:53:00
6:53 PM,27.0,19.9,75,30.43,10.0,Calm,Calm,-,N/A,,Clear,0,2013-01-10 00:53:00
7:53 PM,23.0,18.0,81,30.44,10.0,SSW,6.9,-,N/A,,Clear,210,2013-01-10 01:53:00
8:53 PM,24.1,19.0,81,30.43,10.0,SSE,5.8,-,N/A,,Clear,150,2013-01-10 02:53:00
9:53 PM,27.0,21.0,78,30.42,10.0,SSE,9.2,-,N/A,,Clear,160,2013-01-10 03:53:00
10:53 PM,24.1,19.0,81,30.43,10.0,SSE,5.8,-,N/A,,Clear,150,2013-01-10 04:53:00
11:53 PM,25.0,19.9,81,30.46,10.0,SSE,6.9,-,N/A,,Clear,160,2013-01-10 05:53:00